Location: Drocourt
(49.0571°N, 1.7669°E)
Time: 14:03:48
(UTC+00:00)

SR - Pass Details

Date: 14 April 2024
Orbit: 579 x 859 km, 66.7° (Epoch: 28 May)

Event Time Altitude Azimuth Distance (km) Brightness Sun altitude
Rises 01:37:28 0° 160° (SSE) 3,371 - -27.1°
Reaches altitude 10° 01:41:07 10° 137° (SE) 2,401 - -26.8°
Exits shadow 01:42:08 12° 127° (SE) 2,223 ? -26.7°
Maximum altitude 01:43:56 14° 106° (ESE) 2,079 ? -26.6°
Drops below altitude 10° 01:46:40 10° 75° (ENE) 2,325 ? -26.3°
Sets 01:50:05 0° 51° (NE) 3,195 ? -26.0°
